Location: *
(45.9500°N, 9.0833°E)
Time: 16:01:06
(UTC+00:00)

Cosmos 2242 Rocket - Pass Details

Date: 03 March 2021
Orbit: 617 x 652 km, 82.5° (Epoch: 17 April)

Event Time Altitude Azimuth Distance (km) Brightness Sun altitude
Rises 19:05:44 0° 346° (NNW) 2,959 7.4 -20.3°
Reaches altitude 10° 19:08:03 10° 342° (NNW) 2,039 6.6 -20.7°
Maximum altitude 19:12:26 53° 266° (W) 782 4.4 -21.4°
Drops below altitude 10° 19:16:45 10° 190° (S) 2,001 6.1 -22.1°
Sets 19:19:00 0° 185° (S) 2,898 6.9 -22.5°
